RH
43 34 32 35 37 43 49 52 49 47 48 44 38 35 35 35 33 35 44 57 62 52 42 42 43 38 34 31 27 25 28 32 31 30 30 29 28 28 29 30 31 32 30 34 41 43 44 46 47 48 50 53 54 53 53 53 54 52 49 48 47 43 35 33 33 32 34 35 33 32 31 27 26 29 33 36 35 36 35 25 16 21 31 26 18 26
43 32 36 44 45 50 52 56 58 56 54 46 37 35 35 36 33 37 48 55 57 49 38 43 46 40 35 31 27 25 27 28 26 26 26 24 26 28 29 31 32 32 33 35 39 42 46 48 50 52 55 56 56 55 55 55 54 53 51 49 46 41 38 38 37 35 35 37 33 30 32 30 27 29 30 29 30 34 32 22 13 17 22 17 18 30
35 31 42 51 50 56 60 62 61 58 54 41 35 35 32 35 36 39 51 54 53 49 38 42 46 37 31 28 25 23 22 23 23 24 25 24 26 26 26 30 32 32 34 33 33 37 43 49 52 54 57 57 56 56 56 55 54 53 52 51 48 42 40 42 41 38 37 39 34 28 29 31 29 29 28 25 24 22 21 20 15 15 19 22 29 35
24 32 51 57 53 55 57 60 59 51 44 35 33 33 30 37 39 34 46 54 53 52 45 46 48 38 29 26 22 24 27 28 30 32 33 34 31 28 28 32 34 33 33 33 31 33 39 46 51 54 56 58 58 58 57 55 54 53 52 52 50 45 42 46 46 42 42 40 32 25 21 21 22 23 22 22 23 21 21 26 30 29 29 30 35 37
32 45 59 61 55 53 52 54 53 40 33 34 37 35 31 37 39 34 43 49 46 49 53 49 39 29 26 24 19 26 36 35 36 37 35 37 38 37 38 38 38 36 36 35 30 30 35 40 46 51 55 59 59 58 57 56 54 53 53 52 51 47 45 50 49 44 46 43 36 34 31 26 26 28 27 27 28 29 32 37 42 41 33 26 29 32
40 55 60 57 54 54 50 46 45 38 30 31 35 36 35 36 40 42 44 43 34 36 49 46 30 21 22 21 17 23 31 28 32 35 28 28 33 38 40 35 34 38 39 39 34 33 37 39 43 48 53 58 59 57 57 57 55 53 53 53 51 48 47 51 51 46 44 42 40 39 36 32 32 31 31 31 27 29 34 36 39 40 32 23 22 26
46 61 61 55 51 52 49 39 41 43 31 27 35 41 42 42 45 47 46 42 30 28 45 49 33 24 22 17 19 28 31 26 27 30 26 24 25 30 34 30 29 33 34 38 39 37 39 41 43 46 50 55 56 55 57 58 56 54 53 53 52 49 48 52 52 47 44 43 40 37 34 33 31 29 29 29 29 31 35 37 38 37 32 26 23 28
50 57 57 54 51 48 41 34 41 43 29 29 44 48 45 47 47 48 46 41 36 32 42 49 38 31 30 25 28 35 30 24 23 24 23 22 21 23 28 30 31 32 33 38 40 37 38 42 44 44 46 51 53 54 58 59 57 55 54 54 52 49 50 53 53 49 46 45 42 39 39 38 36 34 32 31 33 36 37 38 36 34 35 33 30 33
47 46 46 48 47 40 35 37 44 42 34 40 52 50 48 50 48 48 46 41 40 36 32 40 39 32 30 25 29 34 26 23 25 24 23 24 25 25 28 30 32 34 37 39 39 38 39 43 46 46 46 48 52 55 58 58 58 57 55 54 52 50 51 54 54 50 46 45 44 42 40 39 38 38 38 39 40 40 38 36 34 34 36 36 36 39
43 47 48 44 36 34 39 48 50 44 44 51 55 52 51 51 47 45 44 40 41 36 28 35 37 30 23 18 21 25 23 24 27 26 26 28 31 31 32 32 31 34 38 41 42 42 43 46 49 51 51 50 53 57 59 59 59 58 56 55 53 50 51 54 54 51 48 46 45 45 43 41 39 39 41 42 40 39 39 36 35 37 37 36 38 41
48 60 63 55 44 41 48 57 60 55 56 59 54 49 46 43 43 42 39 37 36 29 30 39 40 33 25 17 15 19 27 31 26 23 25 26 27 28 31 34 34 35 39 43 45 44 46 50 55 58 57 55 56 60 62 63 62 60 58 56 53 51 51 54 54 51 50 48 45 44 43 41 39 39 43 43 39 39 40 36 35 38 38 38 40 42
47 52 53 59 59 52 49 53 63 64 60 57 50 42 36 30 32 34 31 32 26 21 32 44 43 39 31 22 17 22 36 42 33 27 27 24 23 25 29 32 35 38 41 44 46 46 47 50 54 59 59 58 59 62 64 66 65 61 59 56 53 52 52 53 54 52 50 49 46 43 41 39 38 40 43 42 39 39 40 37 36 38 38 39 41 43
35 41 44 53 56 53 44 39 49 58 55 50 43 36 29 21 22 24 21 23 20 20 37 46 40 36 30 24 25 28 35 39 39 38 34 29 27 27 29 31 35 40 42 44 46 47 49 50 52 55 57 59 61 63 64 67 67 63 60 56 53 52 53 53 54 53 51 49 47 45 41 39 39 41 44 43 41 41 41 39 40 40 37 38 40 41
23 37 45 43 43 50 45 30 29 37 40 39 35 31 27 21 23 26 22 23 23 23 37 43 37 33 24 20 27 29 26 28 33 37 37 35 33 30 32 36 42 45 46 47 49 50 51 52 52 54 57 60 62 63 64 66 67 64 60 56 53 52 53 54 54 53 51 49 48 45 42 41 41 44 47 46 43 43 42 41 42 42 40 40 41 42
20 23 33 37 40 48 44 37 36 32 31 38 37 32 30 25 24 27 23 23 29 30 36 41 36 30 22 19 23 24 23 26 28 34 39 41 41 42 44 46 48 47 46 47 49 50 50 50 51 55 59 62 64 64 64 65 67 65 61 57 53 52 53 53 54 54 52 50 48 45 43 42 42 44 46 45 44 46 46 44 44 44 43 43 43 45
21 13 31 47 49 49 44 48 53 39 30 40 42 34 33 31 25 28 33 36 44 45 41 42 36 27 22 20 23 26 27 28 30 37 42 41 41 48 50 46 42 40 39 41 45 46 46 47 50 55 59 63 66 66 65 65 65 64 62 58 55 53 53 54 54 55 53 51 49 46 43 42 43 45 46 47 48 47 45 42 42 44 45 45 46 50
21 16 35 50 49 49 50 53 55 44 32 35 37 33 37 41 32 32 40 45 51 47 34 32 31 26 22 17 20 25 23 22 25 29 30 28 31 39 39 34 31 31 32 35 39 42 42 43 47 52 58 63 66 67 66 64 63 63 61 59 57 55 54 54 55 56 54 51 49 47 45 44 44 44 44 45 45 43 39 38 41 45 46 48 51 53
26 23 31 42 42 47 57 59 55 55 46 33 33 35 39 43 36 34 38 37 40 38 28 29 35 32 25 18 19 22 19 16 17 18 18 20 24 26 25 24 25 27 28 30 34 37 40 42 44 50 56 60 63 65 65 63 63 63 61 60 58 56 55 54 55 57 55 51 50 48 47 46 44 44 42 40 39 38 37 38 43 46 47 50 53 55
30 26 27 39 43 42 50 50 44 53 56 43 39 38 35 36 33 31 35 32 33 37 32 32 41 40 30 22 19 18 17 14 13 14 17 19 20 20 21 22 24 26 28 30 31 33 37 38 40 45 52 57 61 65 66 66 65 64 63 61 58 56 55 54 56 57 56 52 50 49 49 47 46 45 41 38 37 35 35 38 42 46 48 50 54 57
30 25 23 36 44 38 35 34 30 39 50 49 47 42 38 39 35 32 35 32 31 36 36 37 38 31 26 26 21 16 14 13 15 17 19 20 20 21 23 24 25 26 29 30 30 31 33 34 36 41 49 55 60 65 68 70 69 67 66 64 60 58 55 54 56 57 56 53 50 49 49 49 48 45 39 36 35 34 35 37 40 45 49 52 56 58
30 25 22 28 35 30 24 27 28 27 35 41 41 43 45 44 41 38 39 41 38 33 34 41 37 22 20 26 21 15 15 15 19 22 20 21 21 21 22 23 24 26 28 29 29 30 31 33 35 41 49 56 62 68 71 73 72 70 69 66 62 59 56 55 57 58 56 53 51 50 49 50 49 45 40 35 32 34 36 36 39 45 50 53 57 58
31 27 28 29 29 23 21 32 38 34 37 37 34 37 40 40 40 36 39 50 52 43 37 40 39 27 22 24 18 15 18 18 22 26 23 21 20 19 20 22 23 25 27 28 28 29 32 34 38 43 50 59 66 72 74 74 74 72 71 68 64 60 57 56 57 58 56 53 52 51 50 51 49 45 41 35 33 35 36 36 39 43 48 53 56 58
40 31 36 38 30 24 29 43 54 54 50 44 40 42 40 39 38 32 36 45 49 52 51 46 47 36 22 21 20 19 23 24 27 30 25 21 19 19 20 20 21 23 25 27 28 30 33 36 41 49 55 61 67 70 72 73 74 72 70 69 65 61 57 56 57 58 56 54 52 51 51 51 49 46 40 34 36 39 36 37 40 43 48 53 55 56
46 35 36 36 24 22 30 38 51 59 55 45 41 46 45 45 50 46 43 42 38 46 49 47 51 39 20 22 26 25 27 26 25 26 24 21 19 19 20 20 21 22 24 27 29 30 33 36 42 50 55 60 64 68 70 72 72 72 70 67 65 61 57 56 57 57 56 54 53 52 51 50 49 47 41 36 38 41 37 37 42 45 50 53 54 54
38 28 30 34 27 26 27 25 33 44 45 36 35 48 55 59 70 66 50 44 43 43 41 44 49 35 18 20 23 21 21 18 17 19 19 20 20 19 20 21 22 25 27 28 30 31 32 35 40 45 50 56 61 64 68 70 71 70 68 66 64 60 57 56 57 57 56 54 52 52 52 51 48 45 40 36 37 40 38 38 43 47 51 52 53 53
39 28 27 31 32 33 31 26 27 29 31 27 31 53 66 67 71 59 40 41 47 44 41 42 42 30 18 19 19 17 18 17 17 17 18 20 21 21 23 24 25 27 28 29 30 32 33 35 38 42 47 53 57 61 66 69 69 69 67 65 63 60 57 56 57 57 56 53 51 51 51 49 47 43 38 35 36 38 38 40 44 47 50 51 52 54
41 39 35 31 33 35 31 28 25 24 30 31 35 53 66 71 71 55 42 44 43 40 42 38 35 35 28 21 21 20 19 19 19 19 20 21 21 23 25 26 28 27 26 28 29 31 33 34 35 38 42 46 50 57 63 67 69 68 66 64 62 60 57 57 57 56 54 52 49 48 48 47 44 39 35 34 36 38 39 42 44 46 49 50 53 56
40 44 47 45 45 40 33 31 28 28 33 34 38 49 57 69 75 62 52 46 37 39 42 31 28 37 32 23 23 23 20 21 21 22 23 23 23 25 25 26 27 26 25 27 29 31 32 33 33 36 39 43 47 54 61 65 68 68 66 64 61 60 58 56 57 55 51 50 48 47 46 45 42 38 33 33 35 37 39 43 45 47 49 50 54 57
41 42 53 60 56 43 36 36 32 32 34 35 43 49 47 59 75 71 59 47 39 43 42 30 27 32 31 26 25 24 22 23 24 24 25 25 25 25 25 26 27 26 27 28 29 32 33 33 33 35 39 43 47 53 59 63 67 68 66 64 62 61 59 57 56 53 50 49 48 47 46 43 40 36 33 33 34 37 41 44 47 49 49 50 54 58
43 41 63 73 62 45 37 37 36 39 42 41 45 45 38 44 58 64 57 46 42 43 38 32 34 34 31 29 27 26 25 25 26 26 26 26 27 27 28 29 29 30 32 33 32 34 34 35 35 35 38 42 46 51 55 60 64 66 65 64 62 61 60 57 54 52 50 49 48 48 46 43 40 37 34 34 35 39 43 47 49 50 49 49 52 57
39 43 68 71 55 43 37 37 38 40 42 42 40 37 34 36 43 53 58 52 50 51 43 39 44 42 33 28 27 26 25 26 27 27 28 29 29 31 31 31 32 33 35 36 36 37 37 37 38 38 39 41 44 48 53 57 62 65 66 66 63 61 60 58 54 50 50 50 49 49 46 42 39 36 33 34 36 40 46 49 50 50 50 51 53 58
37 42 56 55 48 41 34 36 38 34 37 44 43 38 33 32 36 45 53 53 53 54 49 46 47 40 29 25 28 28 28 31 32 31 32 32 32 33 34 34 34 35 36 38 39 40 41 41 41 42 42 44 46 49 52 57 61 65 67 67 64 62 60 57 53 50 50 50 49 49 46 41 38 35 34 35 38 42 47 50 51 50 52 53 55 60
48 42 43 47 49 40 31 34 36 31 32 34 31 29 27 26 29 32 35 40 42 42 42 41 37 29 25 29 32 33 33 34 35 34 34 35 35 36 35 35 36 37 39 40 42 43 44 43 44 45 45 47 49 52 55 60 64 66 67 67 66 63 60 57 53 50 50 49 48 48 45 41 37 34 35 37 39 43 46 49 51 52 53 54 57 62
62 47 42 47 48 42 39 37 33 32 32 24 20 26 30 28 29 30 30 33 34 32 32 32 29 27 30 33 34 36 37 35 34 35 35 36 37 37 36 36 38 40 41 42 44 45 45 46 46 47 49 51 53 57 61 65 69 69 69 69 68 64 60 58 54 51 50 49 49 48 45 41 38 35 36 39 40 43 47 49 52 53 54 56 60 63
60 48 48 52 50 47 44 39 37 37 31 23 24 35 39 34 31 32 33 34 34 34 33 33 32 32 32 33 34 36 36 35 35 36 35 34 36 38 39 40 40 41 43 45 46 46 46 48 49 50 52 56 59 64 67 69 71 73 73 72 70 65 61 58 54 52 50 49 48 47 44 41 37 36 38 40 41 43 48 51 52 53 55 58 60 63
52 50 53 53 50 45 38 38 41 37 26 22 28 39 43 37 33 36 40 37 33 35 37 37 35 33 33 34 35 35 36 38 39 39 37 36 37 39 41 41 42 43 44 45 46 48 49 50 51 53 56 60 65 68 70 72 74 76 76 74 71 65 59 56 53 51 49 49 48 46 44 40 38 38 41 42 42 45 51 54 52 53 56 59 61 64
48 51 50 48 46 42 38 40 38 34 31 25 22 30 36 32 31 39 46 41 31 31 37 38 35 34 36 36 35 37 41 42 39 36 34 34 36 38 40 41 43 45 45 46 47 49 51 52 55 58 61 64 67 69 71 74 76 77 76 72 68 63 57 54 53 51 51 51 48 47 45 42 40 41 42 43 44 47 53 55 52 54 58 59 62 66
49 49 44 44 45 42 43 47 45 45 42 27 20 27 36 38 39 42 47 45 35 30 35 38 37 38 38 38 38 41 44 43 37 30 28 29 33 37 41 43 44 45 46 48 50 50 51 54 57 60 64 66 66 68 71 75 77 77 73 69 65 60 56 54 52 51 54 55 53 51 48 46 44 43 42 43 43 45 50 53 53 54 55 57 63 66
54 50 46 49 50 48 48 49 50 50 42 29 25 26 33 47 49 45 48 48 37 33 36 38 39 40 39 40 43 45 46 45 38 30 27 30 36 40 43 45 44 45 47 49 51 52 53 56 58 60 63 65 65 68 72 76 77 75 69 66 63 59 56 53 52 53 58 59 57 55 53 50 48 45 42 41 40 41 45 50 52 52 51 56 67 70
62 56 53 56 56 55 56 53 48 44 36 32 29 25 36 54 52 48 53 46 34 33 37 38 41 41 39 43 45 46 46 44 39 34 32 36 41 42 44 46 45 47 48 49 51 53 55 57 59 60 62 64 66 68 73 77 77 73 69 67 63 59 57 55 54 57 60 60 58 57 55 54 52 48 42 39 37 36 40 45 49 50 50 58 70 75
65 63 59 59 57 58 62 58 49 41 35 32 29 30 46 56 47 44 47 39 32 35 35 38 43 40 40 45 46 45 44 40 39 40 40 42 45 44 44 46 47 48 50 51 52 54 55 57 58 60 62 64 66 69 73 77 75 72 71 69 64 62 61 59 58 59 60 60 58 57 57 57 56 52 44 38 34 34 38 43 47 48 50 57 68 78
58 60 59 60 58 57 60 59 52 42 34 30 30 37 49 49 39 37 35 31 34 37 35 39 43 40 41 45 45 45 44 42 43 45 45 46 47 46 46 47 48 50 51 52 53 54 55 57 58 59 61 62 66 68 72 76 75 72 71 69 67 68 67 63 61 60 60 60 59 58 59 60 60 54 45 39 36 35 40 45 47 47 50 54 61 74
45 46 44 47 49 50 55 60 55 40 31 32 34 40 44 38 31 31 31 32 37 38 38 41 41 39 42 44 44 47 47 46 47 48 47 47 46 47 48 48 49 52 52 53 54 54 56 58 58 59 62 64 66 68 71 75 76 73 72 71 70 72 70 67 65 63 62 62 60 60 61 62 61 55 45 41 39 37 40 46 50 52 52 54 62 80
42 38 34 37 42 43 46 50 42 28 28 35 33 30 30 28 27 32 35 35 37 37 39 41 39 40 44 45 47 49 49 49 50 48 48 49 48 49 50 49 51 53 53 54 54 54 56 59 59 61 64 66 66 67 70 74 76 76 76 74 74 75 73 71 70 67 65 65 63 62 62 62 61 55 47 42 42 41 43 49 53 55 56 59 71 88
39 37 35 37 41 41 38 37 31 23 25 30 28 26 27 26 29 37 39 37 38 38 39 41 42 43 45 47 50 52 51 51 50 48 50 51 49 50 51 50 52 53 53 53 54 54 56 59 61 65 66 66 66 67 68 71 75 78 78 75 75 77 77 75 73 70 68 67 65 64 63 61 58 54 49 45 44 45 49 54 57 60 63 69 82 94
37 39 37 35 39 41 35 31 30 28 26 26 26 29 30 29 32 38 40 40 40 39 40 43 46 47 47 49 51 52 51 50 49 49 50 49 49 50 49 50 51 52 53 53 53 55 58 60 63 66 67 67 67 67 68 70 73 77 77 75 77 80 80 79 77 74 71 69 67 66 64 61 59 57 54 52 50 47 49 53 58 62 67 76 89 97
39 40 37 33 37 42 37 30 28 30 30 28 28 29 30 34 38 40 42 42 42 44 46 48 49 49 48 49 50 50 49 49 50 50 49 48 50 49 48 50 51 52 53 54 54 57 60 61 63 66 69 71 69 68 69 70 72 76 77 76 79 82 84 84 81 77 74 72 69 68 66 64 63 62 62 62 60 58 57 57 58 62 69 80 92 98
39 40 39 37 37 38 36 31 29 30 31 32 34 34 34 37 41 43 44 45 47 49 50 48 47 48 47 48 49 50 50 50 50 51 51 51 51 50 50 51 52 53 55 56 57 59 60 62 66 69 72 73 71 70 71 71 72 77 79 78 79 83 88 89 85 81 79 76 73 72 70 68 67 67 70 71 69 69 70 68 65 65 66 70 78 87
39 42 41 39 40 40 38 34 33 36 35 33 37 41 41 42 47 49 47 48 49 49 47 43 42 42 44 47 49 49 49 50 50 51 53 54 53 53 53 53 53 55 57 57 58 61 63 65 69 72 73 74 72 72 72 72 73 78 80 79 79 84 91 93 89 87 85 81 78 76 74 73 71 70 73 77 77 78 76 69 63 63 64 61 59 62
42 45 42 41 46 47 40 33 35 42 42 37 39 45 46 47 52 54 51 50 50 47 44 44 43 42 42 44 46 47 49 49 48 49 53 55 55 54 54 55 56 57 58 59 62 64 66 68 70 73 75 75 74 73 73 75 76 78 80 80 80 84 91 94 93 91 88 85 83 80 77 77 75 72 74 79 85 88 86 77 70 65 63 61 56 54
41 39 37 38 41 40 34 33 40 48 50 46 45 49 51 53 56 56 52 50 48 46 45 47 48 47 47 46 45 47 50 50 50 51 54 55 55 54 55 57 59 60 61 64 66 67 69 70 72 74 76 75 73 74 76 78 79 78 79 81 82 85 91 94 94 92 88 87 86 83 80 80 78 75 76 79 87 93 91 89 89 84 78 70 59 60
Wind_Speed
2 2 3 1 2 2 2 2 2 2 1 1 1 1 3 5 6 4 1 2 0 5 8 9 11 15 17 18 18 14 7 9 14 13 12 11 9 8 8 8 9 10 11 10 10 10 10 13 16 20 24 24 24 24 24 22 21 21 18 16 14 12 11 11 9 9 8 8 8 8 8 8 7 6 6 5 6 6 7 9 11 11 11 12 13 12
2 2 3 1 2 2 1 1 2 2 0 0 1 2 3 4 6 2 2 1 1 3 6 4 8 15 17 17 18 16 11 12 14 13 12 11 8 7 7 9 10 8 8 8 10 10 10 11 13 16 19 22 23 23 24 23 21 21 20 18 15 13 12 12 11 10 10 10 10 9 8 8 7 6 6 6 6 7 8 10 11 11 11 13 13 12
1 2 2 2 2 2 2 2 3 3 1 1 1 2 4 2 5 3 2 1 2 3 6 4 9 15 17 18 19 17 15 13 12 11 11 9 7 7 8 8 8 8 8 8 9 9 9 11 13 15 17 20 22 21 23 24 22 21 21 19 17 15 13 12 12 12 11 10 11 11 10 8 8 7 7 8 9 10 10 10 11 11 11 11 11 11
1 2 3 3 3 3 2 2 3 3 2 2 1 3 4 2 2 3 2 1 4 4 6 8 10 13 14 15 15 12 11 10 7 8 10 9 9 10 8 6 7 9 9 9 9 7 8 10 12 15 16 18 19 19 21 23 22 22 22 21 19 17 14 13 13 13 11 11 12 13 12 12 11 10 10 10 10 10 10 10 10 9 10 10 10 10
2 3 3 3 2 0 2 3 4 4 2 3 4 4 5 3 3 5 3 4 5 4 3 7 9 9 6 6 6 2 3 5 3 5 8 9 10 10 9 9 9 10 10 9 10 7 6 9 12 14 15 16 19 21 22 23 25 26 25 23 21 18 15 14 14 13 11 11 11 10 10 11 10 10 9 8 7 7 8 8 7 8 9 10 10 10
3 2 1 3 1 2 4 3 3 4 3 1 4 5 6 5 5 7 6 7 5 3 1 3 7 5 1 3 6 1 1 5 2 3 9 8 8 8 8 10 9 9 9 9 10 8 6 8 10 12 15 17 20 22 22 24 27 29 26 24 21 18 16 15 14 14 12 11 10 9 8 8 8 8 7 7 7 7 7 8 7 8 10 10 11 11
2 2 1 1 1 3 4 3 3 3 3 1 0 1 2 3 4 6 5 4 4 3 0 1 5 7 6 6 5 3 5 8 4 5 9 8 7 7 7 8 7 7 7 7 8 8 7 8 9 12 15 18 21 22 21 24 28 29 27 24 22 19 17 16 16 15 13 11 11 10 10 9 9 9 8 7 7 8 8 9 9 9 9 10 11 10
3 2 2 1 2 4 4 3 3 3 3 1 1 2 1 2 5 4 3 4 3 5 2 2 3 6 8 5 1 3 7 9 7 6 7 7 8 7 6 6 6 7 6 5 6 7 7 8 10 12 14 17 20 20 20 24 28 30 29 26 23 21 18 17 17 16 14 12 11 10 10 10 10 10 10 8 8 9 9 9 9 9 8 9 10 10
2 3 3 3 3 4 2 2 2 3 3 2 2 2 1 2 3 2 3 4 1 4 3 3 2 5 7 4 2 1 6 8 7 6 5 5 5 5 5 5 6 6 5 5 6 7 6 7 9 11 12 15 17 19 22 26 29 31 30 27 24 22 19 18 18 17 15 14 11 10 10 10 10 10 10 9 9 10 10 10 9 8 8 8 9 9
0 1 1 3 3 2 2 3 1 2 2 1 2 0 1 1 1 1 3 3 1 4 3 2 1 4 7 6 1 1 3 5 5 4 4 4 4 4 5 6 7 6 4 5 6 7 8 8 8 9 11 13 14 18 22 25 27 30 30 28 26 24 21 19 19 18 16 15 13 11 11 11 11 10 9 9 10 10 9 9 8 7 7 7 8 8
1 1 1 1 1 1 2 2 2 2 1 0 2 3 2 3 2 1 2 1 2 4 1 2 1 3 6 6 2 0 1 1 2 5 6 6 7 6 5 5 6 6 5 5 5 8 9 9 8 9 11 12 13 15 19 22 25 28 30 30 27 24 22 20 19 19 17 16 15 13 12 12 12 11 10 10 10 9 9 9 8 7 7 7 8 8
1 2 2 1 1 0 1 1 1 2 1 1 3 4 4 3 2 2 2 2 3 3 2 2 2 3 5 6 2 2 3 2 3 6 9 10 10 9 7 6 6 6 6 6 7 7 7 8 8 9 10 11 12 14 17 21 23 26 30 31 27 24 23 22 20 20 18 16 16 14 13 13 12 12 11 11 11 10 9 9 8 7 7 8 8 8
1 2 2 1 1 0 2 2 1 2 2 2 3 3 5 4 1 2 2 2 4 1 3 2 2 3 8 9 7 9 10 7 5 7 9 10 10 10 9 8 6 6 7 7 7 7 7 7 7 8 10 11 13 15 18 20 23 25 29 30 27 24 24 23 21 21 19 18 17 15 14 13 12 12 12 12 11 10 9 9 8 7 8 8 8 8
1 2 2 1 1 1 2 3 2 1 1 2 3 3 5 4 3 4 3 3 4 1 3 2 1 5 7 6 7 10 11 8 5 7 9 9 9 9 8 8 8 8 8 7 7 7 7 7 7 8 9 11 13 16 18 20 22 26 28 30 28 24 24 25 23 21 20 19 18 16 15 14 12 12 12 12 11 10 9 9 8 8 8 8 9 9
2 1 1 0 0 2 1 2 3 3 2 2 1 2 3 3 4 5 3 4 6 4 0 2 1 4 3 4 3 6 8 8 6 6 6 7 8 7 7 7 7 8 7 6 6 8 8 9 9 8 9 11 13 15 17 20 22 25 28 30 29 25 23 25 25 22 21 20 18 17 16 15 14 12 12 12 11 10 9 9 9 8 9 8 9 9
3 2 2 1 1 1 1 1 1 3 2 1 0 2 2 2 3 3 2 2 4 5 2 2 3 4 4 9 9 4 4 5 4 3 4 5 5 4 5 5 5 6 6 6 6 8 9 10 10 9 10 11 13 15 18 21 24 27 29 30 31 28 25 26 26 24 22 20 17 17 17 16 15 13 12 11 11 10 10 10 10 9 9 9 9 9
3 3 1 1 1 1 1 1 1 3 2 0 1 2 1 2 3 2 1 1 1 4 3 1 4 4 4 8 6 2 2 2 1 3 3 5 3 3 5 5 6 7 8 8 8 8 10 10 11 10 10 12 13 16 20 24 26 30 31 30 30 28 26 27 28 24 22 20 18 18 17 16 16 15 14 13 11 11 11 11 10 10 9 9 9 9
3 5 1 1 1 1 1 2 1 1 2 2 2 1 0 2 2 1 2 2 2 5 4 1 5 6 3 4 2 3 2 2 4 5 5 7 5 5 8 10 10 10 10 11 10 9 9 10 11 11 12 14 16 18 22 25 26 29 32 32 32 31 30 30 28 25 22 21 19 18 17 17 16 16 15 14 13 12 11 10 10 9 9 9 9 9
2 5 1 1 3 1 2 3 2 2 2 3 2 1 0 3 3 1 2 3 3 5 5 3 5 5 5 4 2 3 5 9 11 8 5 7 8 9 12 14 14 13 11 11 11 9 8 9 12 12 12 15 17 20 22 23 24 27 30 33 33 34 33 32 29 25 23 21 20 19 18 17 16 16 15 14 13 12 11 11 10 10 9 9 9 9
1 3 2 3 3 2 1 3 3 2 3 1 2 1 0 2 3 2 1 2 3 5 6 4 5 6 5 4 2 7 10 12 13 10 7 7 8 10 11 12 14 13 11 10 11 10 9 11 13 13 13 15 17 19 21 21 23 26 29 31 33 33 33 31 29 26 23 22 21 19 18 16 16 16 15 14 14 13 12 11 10 10 9 9 9 9
1 2 4 2 2 3 2 2 2 2 2 2 3 3 2 2 1 3 2 1 2 5 5 2 5 9 5 3 2 9 12 10 9 10 11 11 12 12 11 12 13 12 12 11 11 12 11 12 14 14 15 18 18 18 20 21 22 24 26 29 33 33 32 31 29 26 24 22 21 20 18 17 16 15 15 15 14 13 12 11 10 10 9 9 9 9
1 2 4 4 3 5 3 1 2 2 2 2 4 3 2 2 1 4 4 0 1 3 3 2 5 10 5 3 2 7 8 8 7 8 12 14 16 15 13 14 14 12 12 12 12 13 11 11 14 14 15 17 16 16 17 19 20 22 25 29 32 33 33 32 30 28 25 22 21 20 18 16 16 15 15 15 14 13 12 11 11 10 10 9 9 9
2 2 4 6 7 5 2 3 3 4 4 4 4 2 1 1 2 5 5 2 1 1 1 1 4 9 5 3 1 4 3 3 4 5 11 14 15 15 15 16 16 14 12 11 12 12 10 12 13 13 14 14 14 15 15 16 19 21 24 28 31 33 33 32 30 28 25 23 22 20 18 16 15 15 16 16 15 14 13 11 10 10 10 9 8 8
1 2 3 6 8 2 3 3 2 1 2 3 3 0 0 1 1 2 3 2 3 3 2 2 4 9 8 2 3 1 1 5 6 5 8 11 13 15 16 16 16 15 14 13 12 11 10 11 11 10 11 12 13 14 14 15 18 19 21 25 29 33 33 31 30 28 26 24 22 19 18 17 16 16 16 16 15 13 13 11 10 10 10 9 8 8
1 1 2 6 7 3 1 1 0 1 1 3 2 2 1 1 3 0 2 1 3 6 6 6 6 9 10 5 5 9 11 15 15 10 8 9 12 15 16 16 16 15 15 14 13 13 12 11 9 8 10 11 13 15 15 15 17 19 21 24 29 32 31 30 30 28 26 24 21 19 18 17 16 17 17 16 14 13 13 12 10 10 10 9 8 7
2 1 2 5 7 6 6 7 5 3 3 4 3 2 2 1 2 2 3 3 5 4 2 6 9 11 14 16 17 18 17 19 21 17 13 12 13 15 16 16 16 15 15 15 15 14 12 10 9 8 10 13 15 16 16 15 17 19 20 23 28 31 30 30 30 28 25 23 21 19 18 18 17 17 17 16 14 13 13 12 11 10 10 9 8 7
1 1 3 5 7 7 9 11 7 5 8 12 11 4 3 4 2 2 3 5 5 2 3 10 12 11 17 20 19 18 20 21 21 20 18 17 17 17 16 15 15 15 14 14 13 13 13 12 11 10 13 19 21 19 18 16 17 19 20 22 26 29 30 29 29 27 24 22 20 18 18 18 18 17 17 15 14 13 13 12 12 11 10 9 8 7
0 2 2 4 9 10 10 15 14 9 12 16 16 11 3 5 4 5 9 9 3 2 8 13 11 9 14 18 18 19 20 21 20 20 20 19 18 18 18 17 18 18 16 14 12 13 13 14 14 12 13 21 24 20 19 18 18 20 20 21 24 27 30 29 28 27 24 21 20 19 18 18 17 17 16 15 14 14 13 13 12 11 10 9 8 8
1 3 0 1 9 11 11 16 17 13 13 12 13 15 10 4 7 9 14 13 6 6 12 15 16 15 16 18 18 19 19 18 19 17 16 17 18 19 21 21 22 21 20 19 17 15 14 16 18 16 14 18 20 18 18 18 18 18 19 20 23 27 29 29 28 26 23 21 20 19 18 17 17 16 16 16 15 15 14 13 12 12 11 10 9 8
2 2 0 1 9 13 10 11 11 9 9 10 12 14 11 9 10 12 16 14 10 13 18 19 21 20 17 16 16 16 16 15 14 13 14 17 20 21 21 20 21 21 21 22 22 19 19 20 21 19 18 18 19 19 20 19 18 19 19 20 22 26 28 28 26 24 23 22 21 19 18 17 17 17 17 16 16 15 14 13 13 12 11 10 9 8
1 1 1 1 7 11 5 4 5 6 7 11 15 12 8 10 11 10 11 10 8 12 16 16 16 16 12 11 13 14 15 15 15 14 16 18 19 19 18 17 19 21 21 22 22 21 21 21 21 20 19 20 22 23 23 22 20 20 21 22 24 26 27 27 25 23 23 22 21 20 18 17 17 17 17 17 17 16 15 14 13 12 11 10 10 9
1 1 1 1 6 8 2 2 9 11 8 9 11 11 7 7 7 6 6 5 6 7 9 9 9 8 8 10 14 17 18 18 17 16 15 16 18 18 16 16 17 19 20 21 20 21 21 21 20 20 19 22 24 25 26 26 22 20 22 25 25 25 25 25 24 23 23 22 20 20 19 17 17 17 17 17 18 17 16 15 13 12 11 10 9 9
0 1 1 2 4 7 5 6 12 14 9 2 2 5 7 6 7 7 5 6 8 6 5 6 6 9 12 13 15 18 20 19 17 15 13 15 16 16 14 15 17 17 18 19 18 19 20 19 19 20 22 25 25 25 28 29 24 23 24 25 25 24 25 25 23 22 22 21 20 20 20 18 17 18 18 18 18 18 17 16 14 12 11 10 10 9
1 1 1 0 2 7 9 10 12 10 4 2 1 2 4 6 6 8 11 9 7 8 7 7 8 11 13 12 13 16 18 18 16 15 14 12 11 12 14 16 16 16 17 16 16 17 17 18 21 25 26 26 26 27 30 31 28 25 24 23 23 24 25 25 23 22 21 21 21 21 20 19 18 18 18 19 20 20 19 16 14 12 11 10 10 9
2 2 1 1 2 6 7 8 9 7 5 6 6 1 3 5 6 9 16 14 6 9 10 9 10 12 12 11 11 13 15 17 15 15 15 12 8 8 12 15 16 16 17 16 16 17 17 18 23 27 28 27 28 28 28 30 29 25 23 22 23 24 25 24 23 21 21 21 22 21 20 20 19 18 18 20 22 22 19 16 14 13 11 10 10 9
3 2 1 1 2 4 4 3 4 9 10 10 7 2 3 3 3 7 14 10 3 7 5 7 10 12 12 12 11 10 13 16 13 10 10 8 6 6 10 14 16 17 16 16 17 18 20 23 25 27 28 28 27 26 25 28 27 24 22 22 22 23 22 21 21 20 21 22 22 22 22 20 19 19 20 22 24 22 18 16 14 13 12 11 10 9
3 3 1 2 2 1 4 4 5 11 12 6 3 2 1 3 3 5 11 9 3 6 1 8 12 15 14 12 11 10 13 13 9 5 5 4 5 9 12 14 16 17 17 19 22 23 24 26 26 26 28 28 27 26 28 29 26 22 21 21 21 20 19 20 20 21 23 25 24 23 23 22 22 22 23 24 25 23 20 17 16 14 13 12 10 9
2 2 2 2 1 1 3 5 5 7 8 3 3 3 2 3 3 3 7 8 3 5 1 8 13 14 13 12 12 12 11 10 8 5 4 5 10 13 14 15 17 18 18 20 24 25 26 27 27 29 30 28 26 26 28 28 25 20 18 19 19 17 17 20 21 22 27 29 27 26 26 25 25 27 26 26 27 26 23 20 17 16 15 14 11 10
2 0 1 2 3 1 2 4 3 4 7 7 6 4 4 3 3 3 5 7 3 5 1 5 10 13 11 11 12 10 8 8 8 8 10 14 16 15 15 16 18 20 22 22 22 23 26 29 30 32 30 25 25 27 28 27 24 17 16 18 18 17 18 21 23 25 31 33 30 29 29 28 29 30 29 29 29 28 25 22 20 19 18 15 12 10
3 1 2 3 3 2 3 3 3 5 8 10 10 5 2 4 4 3 6 6 1 3 3 3 7 12 10 10 10 7 5 7 9 11 15 18 19 18 16 15 16 20 23 24 24 24 25 25 26 27 25 24 27 30 30 28 22 17 18 19 17 17 21 25 26 29 32 31 30 30 30 30 31 31 31 31 31 29 27 24 22 20 19 17 14 11
2 1 1 2 2 3 4 4 4 5 8 10 9 3 3 4 3 4 7 5 7 10 9 4 7 11 10 8 8 6 7 9 12 15 18 18 18 19 20 20 22 22 22 24 27 28 26 24 23 24 24 27 31 30 29 27 20 18 20 19 17 21 27 29 28 28 29 29 29 30 31 32 32 32 32 32 31 29 28 25 23 21 20 19 17 14
1 1 1 1 1 2 3 3 4 6 6 5 3 2 4 1 5 6 6 6 7 10 11 8 8 10 10 9 8 8 11 13 14 16 16 16 16 17 19 22 24 24 25 28 30 29 25 24 26 27 28 33 35 32 29 25 19 19 20 18 22 29 31 30 28 28 27 28 30 31 32 33 33 32 32 31 30 30 28 26 24 23 21 20 19 16
1 1 2 2 2 1 1 2 3 6 2 3 1 2 3 3 6 7 7 8 6 7 9 8 8 9 11 12 11 12 14 15 15 16 16 16 16 16 18 20 19 20 24 28 30 30 27 25 26 27 29 33 35 32 28 24 20 20 19 21 28 33 30 28 28 27 28 29 32 33 34 35 34 33 33 32 31 31 30 28 26 24 22 21 20 17
3 3 3 2 2 1 2 3 5 6 1 5 0 4 5 6 5 5 6 8 7 6 6 6 7 9 10 11 13 14 15 15 16 17 17 17 17 16 17 18 18 19 22 25 28 31 30 25 25 28 31 34 34 32 28 24 22 22 22 26 33 33 28 28 27 26 29 31 32 33 34 35 35 33 33 33 32 32 31 29 28 26 24 23 21 16
4 4 2 3 3 3 5 8 10 11 8 2 3 7 10 11 7 3 5 7 7 6 5 5 8 10 10 11 13 13 13 15 16 17 17 16 16 16 16 18 19 19 21 24 27 31 30 26 25 28 30 36 40 37 31 26 23 23 27 32 34 32 28 27 25 26 29 31 33 34 34 34 34 34 34 34 34 34 33 32 31 28 26 25 21 15
3 2 0 3 3 3 9 13 12 11 12 9 7 7 8 9 7 3 3 6 7 7 6 6 8 10 10 10 11 11 13 15 16 17 17 16 16 16 16 18 20 21 22 24 27 31 31 27 25 25 26 34 43 43 38 33 26 24 30 35 34 32 29 26 24 27 29 31 33 33 33 33 33 33 34 34 35 36 36 35 33 30 28 27 21 15
2 2 2 6 4 3 8 12 8 7 10 11 11 11 8 6 4 3 4 7 9 8 7 7 9 10 11 11 12 13 15 17 17 17 16 15 16 17 17 17 19 22 23 25 28 32 30 24 22 24 24 30 40 42 41 38 32 27 29 33 34 32 28 24 24 27 29 30 32 31 31 32 32 32 33 35 36 36 35 35 34 32 31 29 22 15
1 2 3 7 8 8 11 13 11 12 13 11 8 8 6 5 6 6 7 8 7 6 7 8 9 10 10 12 13 15 16 16 17 17 16 14 16 17 16 17 21 23 25 27 30 32 29 23 22 22 22 27 37 42 41 39 35 30 27 30 33 30 24 22 24 26 28 30 31 30 30 31 32 33 33 34 35 36 35 34 34 33 32 32 28 22
2 1 5 5 6 9 12 12 10 10 13 9 4 3 7 10 11 10 9 8 7 8 11 14 15 15 13 13 13 14 16 16 16 17 16 15 15 16 17 21 24 25 26 28 29 30 30 28 25 24 24 29 38 42 39 37 36 33 29 30 32 28 22 22 23 25 27 29 28 28 28 29 31 33 33 32 31 31 33 35 36 35 33 32 31 29
2 6 6 3 5 8 9 9 9 9 12 12 10 11 14 13 10 9 10 10 11 14 15 17 19 19 18 17 16 15 15 16 17 18 18 16 16 18 22 25 26 26 27 29 29 30 32 32 30 27 27 31 38 40 37 36 38 36 31 30 31 26 22 21 21 23 26 26 26 27 27 28 30 33 32 29 26 24 26 30 33 33 32 31 29 28
4 5 3 3 8 10 12 14 14 11 12 14 15 17 16 11 8 9 12 13 14 15 15 15 16 17 17 19 22 21 17 16 19 20 17 17 21 26 29 29 27 25 27 29 28 28 31 33 33 31 29 31 37 38 35 35 37 36 33 32 30 26 23 21 19 19 22 25 26 26 26 28 31 32 29 26 25 24 24 26 27 27 28 28 26 25
Wind_Direction
313 93 89 50 16 352 330 319 331 339 346 92 133 266 270 270 278 268 149 89 198 274 259 241 252 263 268 271 274 273 236 234 256 252 252 253 251 252 248 252 252 250 257 263 267 261 247 239 232 229 224 217 216 217 215 211 213 219 220 224 229 235 243 246 248 249 247 244 242 243 241 241 244 250 258 255 255 266 277 294 307 309 306 310 317 318
271 71 71 355 312 330 337 216 245 267 281 7 209 274 270 251 273 277 112 107 138 264 265 248 269 266 264 267 269 270 253 246 251 243 246 249 245 249 247 252 254 255 263 266 264 252 236 228 220 219 216 212 211 211 211 210 213 218 220 223 225 228 238 244 244 241 242 242 242 245 245 248 255 259 262 258 258 270 283 297 307 308 306 311 314 312
69 63 71 91 122 97 89 162 238 257 242 261 198 272 284 279 283 280 99 104 165 234 277 311 297 276 269 267 264 263 256 249 248 240 246 253 249 249 243 248 256 263 266 263 260 245 226 221 212 211 213 213 212 210 211 212 212 215 219 222 223 225 233 240 242 242 242 240 244 250 251 253 261 264 267 273 281 286 291 298 304 307 307 308 308 305
75 69 79 122 134 110 105 173 230 244 220 233 248 280 288 6 316 272 75 60 205 231 292 309 300 281 271 267 259 257 257 259 263 251 247 247 248 250 255 263 259 261 266 264 264 245 217 212 209 211 213 211 210 209 210 210 208 212 217 220 222 226 230 234 239 242 242 243 251 258 260 265 270 274 276 282 286 284 291 297 298 301 304 306 305 304
68 56 84 134 139 3 232 202 211 238 246 225 225 254 278 305 279 263 328 323 250 213 277 295 288 273 262 269 262 224 227 255 258 256 252 237 237 250 265 269 254 250 256 262 269 256 213 212 213 213 212 209 210 212 211 208 210 215 218 220 222 224 227 231 236 239 238 243 251 254 262 269 270 271 270 272 272 267 279 286 280 286 300 309 310 310
70 54 124 142 152 240 233 231 220 243 278 245 213 237 276 300 287 277 312 322 281 216 167 313 302 283 229 258 267 263 297 276 245 249 260 242 225 232 248 256 247 241 244 248 260 263 240 225 219 214 212 211 214 217 214 212 216 220 220 220 221 221 224 229 232 235 235 237 239 238 247 255 256 260 256 253 263 267 273 277 278 288 301 313 317 315
86 79 217 213 234 233 245 252 210 227 280 298 237 269 284 300 286 286 302 298 288 298 120 309 295 289 294 284 279 339 321 293 276 246 253 250 237 226 232 249 248 244 244 239 246 253 250 235 221 219 215 214 220 220 215 216 220 221 220 219 218 219 223 226 229 233 234 232 234 236 241 248 253 260 261 258 266 272 275 280 287 294 300 310 316 315
124 132 192 228 250 243 259 262 181 201 277 312 30 358 345 276 273 276 281 256 285 322 301 175 233 273 289 293 5 0 310 293 285 262 248 242 245 243 241 248 252 254 254 251 250 247 243 234 227 228 224 222 225 222 215 217 221 221 220 219 218 219 221 225 229 232 233 230 231 236 239 245 251 255 263 267 269 273 277 282 287 291 294 301 310 310
149 198 193 192 225 246 285 4 134 190 277 352 44 350 336 291 279 237 254 258 284 313 280 151 157 265 276 267 142 35 304 297 295 288 279 265 258 267 274 271 266 265 263 263 266 265 261 247 239 239 236 232 227 221 221 223 224 222 219 217 217 219 220 223 228 231 234 235 233 236 239 243 249 254 260 265 268 271 275 281 283 285 288 293 299 301
19 280 211 210 236 271 27 34 37 216 291 25 112 32 120 150 262 200 251 272 235 274 271 127 125 280 286 285 252 104 297 289 289 293 300 302 297 283 285 290 287 283 274 263 263 268 269 262 255 252 246 238 225 223 227 227 224 221 217 215 216 218 218 221 227 229 232 237 236 235 237 241 248 253 256 260 264 266 271 277 279 280 284 289 292 294
31 81 202 243 305 6 66 63 13 358 12 119 215 258 233 190 187 187 229 271 248 250 220 84 357 294 297 295 272 211 328 337 305 303 301 302 305 294 281 287 291 292 292 283 272 268 266 263 259 254 249 240 225 221 223 221 220 219 216 214 215 217 219 220 225 228 229 234 237 237 237 241 246 250 252 257 261 262 266 272 276 279 282 287 289 291
175 184 175 87 5 26 122 142 91 75 106 264 271 278 276 240 191 199 191 183 251 264 103 83 306 258 256 270 265 289 297 242 233 281 292 298 305 307 303 296 289 286 286 285 282 277 273 267 253 242 243 235 221 216 215 215 216 214 214 214 212 214 218 220 223 227 228 230 236 239 239 240 243 245 246 253 259 261 265 270 274 279 284 287 286 288
206 166 104 89 114 42 287 259 161 145 167 258 273 283 294 298 287 262 250 217 254 271 110 117 320 260 245 258 272 283 282 263 229 242 263 279 290 295 301 304 299 289 283 279 278 276 274 268 252 239 237 227 218 215 213 212 212 212 213 212 211 212 215 219 222 225 228 230 234 239 241 239 240 242 244 249 255 258 261 266 269 275 282 284 284 286
357 115 101 165 148 36 299 285 293 230 214 266 286 310 307 321 323 289 284 278 275 300 121 132 330 274 263 266 251 258 276 281 254 240 245 257 266 275 289 298 298 291 284 277 273 274 268 260 256 247 236 225 221 218 213 211 211 211 211 210 211 212 214 219 222 223 227 230 234 239 240 238 236 238 241 244 249 253 256 260 263 268 274 278 281 283
331 327 41 161 18 5 291 303 332 313 293 288 333 322 292 293 291 285 304 298 297 318 186 152 252 252 286 327 262 243 280 287 271 258 257 256 253 263 281 285 285 284 283 282 277 274 268 263 262 254 242 232 225 221 215 213 212 210 211 211 211 210 211 218 221 222 225 228 232 237 239 238 236 236 239 242 245 247 249 255 259 263 267 273 278 280
286 283 39 33 323 332 312 18 354 289 280 141 115 277 275 302 296 287 321 321 313 311 266 190 241 237 275 297 287 285 284 266 264 263 260 268 259 260 275 275 281 286 288 287 282 279 276 272 268 259 250 242 232 224 219 217 216 213 212 212 213 212 212 217 220 222 225 226 228 234 237 237 235 235 237 238 240 242 247 255 260 263 266 272 277 279
303 288 61 71 217 71 347 321 310 299 309 129 264 289 332 334 305 283 289 92 179 275 272 192 259 276 303 288 284 329 298 203 241 276 279 302 294 269 284 294 302 302 300 296 287 281 281 278 276 268 258 249 236 229 227 226 223 220 216 214 213 213 213 218 221 221 225 225 225 231 234 234 234 235 236 237 238 242 250 257 262 264 268 271 274 277
300 286 357 78 253 119 156 246 239 284 293 277 286 350 30 258 269 268 277 275 239 263 277 265 275 289 312 300 330 33 2 333 315 312 330 332 324 314 314 315 312 307 302 298 290 281 278 277 277 272 265 260 251 242 239 236 230 225 221 218 216 214 214 218 219 220 223 224 223 227 229 230 233 234 236 239 240 243 249 255 257 261 264 269 273 276
266 278 319 160 243 204 156 232 245 165 205 273 287 61 291 260 246 203 265 288 287 282 279 277 291 275 230 239 297 341 342 330 321 328 345 333 325 321 318 318 314 309 304 300 296 291 286 283 282 277 270 269 263 253 247 240 232 227 224 221 220 219 219 219 219 219 221 223 223 225 228 229 230 233 235 237 239 242 247 252 254 258 264 270 273 275
213 280 297 186 208 288 193 214 237 162 145 213 231 179 98 271 265 263 281 290 276 277 283 302 316 289 227 187 261 314 327 330 330 337 340 327 320 316 315 315 311 309 307 303 301 297 293 292 290 284 277 273 268 260 250 239 232 228 224 221 220 220 219 219 219 219 218 220 222 224 226 226 227 232 235 236 237 240 244 250 255 259 264 268 269 270
213 241 279 230 183 277 274 193 228 226 176 196 216 214 197 196 276 288 253 209 267 271 274 287 291 286 275 142 287 313 328 341 347 340 329 326 324 321 316 310 308 308 305 301 299 298 298 297 294 288 283 279 272 262 251 239 232 227 222 221 220 218 216 216 216 217 216 217 220 221 223 224 226 230 233 234 236 236 240 247 253 258 261 263 265 266
295 240 279 304 291 285 300 40 358 314 303 278 260 254 243 210 252 274 260 171 350 274 270 292 283 284 291 110 306 318 340 352 356 337 322 323 323 321 317 308 304 301 296 296 299 300 300 299 296 292 287 281 270 258 248 238 231 224 221 221 219 216 214 214 214 214 215 215 217 220 220 220 224 228 230 232 234 233 237 243 249 256 258 258 260 262
328 273 281 283 274 288 14 57 17 340 326 300 282 303 345 307 265 272 282 337 357 272 15 26 277 278 288 104 356 327 1 340 327 317 312 316 315 312 309 303 300 295 291 295 298 299 299 298 296 291 285 278 266 256 246 235 230 226 223 222 218 216 214 214 214 215 214 215 216 218 217 217 220 223 228 230 229 228 233 237 244 250 252 251 254 258
297 251 283 282 270 266 100 116 114 37 329 281 267 154 165 314 6 297 295 342 310 269 243 248 256 275 290 79 118 272 297 296 299 293 292 302 307 307 305 301 300 300 300 301 299 296 297 296 293 289 283 276 268 260 247 236 233 229 226 222 219 218 216 214 214 214 214 214 215 214 213 214 216 219 224 226 224 224 229 233 238 242 245 246 248 255
291 268 325 309 309 326 10 1 50 154 252 267 252 104 68 24 61 26 221 147 277 263 247 253 261 269 283 309 315 310 314 313 315 315 298 298 306 308 307 304 303 304 305 306 304 300 301 302 300 295 288 280 275 269 254 240 236 231 226 224 221 219 216 215 214 213 213 212 210 210 210 212 213 217 221 221 219 221 227 231 232 235 240 240 242 250
295 324 310 304 319 326 318 321 328 326 313 280 251 110 109 144 138 251 271 250 252 259 232 248 259 271 288 301 306 311 318 318 320 327 324 316 311 306 304 305 307 307 306 308 308 305 303 305 303 301 296 289 283 276 263 245 236 233 229 226 225 221 217 216 214 212 211 209 207 206 208 210 211 215 218 217 215 218 223 227 227 229 234 236 240 245
335 261 248 257 267 276 288 293 299 322 310 290 287 287 159 162 178 224 264 254 248 282 272 254 256 273 289 297 304 313 319 320 323 329 330 327 321 312 304 300 302 304 304 304 306 307 308 308 309 310 309 305 299 286 272 257 241 236 231 226 225 223 220 217 214 211 209 207 206 205 207 210 212 213 215 213 212 215 219 223 225 227 230 235 240 240
353 261 256 250 251 253 270 281 286 292 284 280 288 291 239 162 165 202 230 240 245 321 277 267 268 275 285 296 305 310 314 320 325 329 328 322 317 312 309 309 311 312 314 313 312 313 312 311 314 315 312 310 307 296 282 269 252 241 235 229 226 223 221 218 214 211 208 205 206 206 207 210 211 212 213 211 211 214 218 220 223 226 230 235 238 236
268 271 320 254 269 265 257 267 276 278 271 268 275 279 272 215 178 207 238 243 230 239 256 270 284 287 289 296 301 305 311 317 319 317 313 308 308 311 316 319 321 322 325 325 325 323 318 315 317 318 314 310 307 301 291 278 260 245 235 231 228 224 221 218 214 211 207 205 207 208 209 209 209 209 210 211 212 213 215 217 219 224 229 233 235 234
199 251 194 207 285 287 267 259 268 267 270 274 266 264 269 258 227 225 246 249 237 243 255 269 281 284 285 287 291 300 307 308 307 308 308 312 315 316 318 322 324 326 328 327 327 326 323 321 321 320 318 316 312 309 301 288 270 253 239 233 230 225 220 217 213 209 207 207 209 210 208 207 208 210 209 209 210 210 211 213 216 222 227 232 237 234
222 278 99 149 292 299 286 256 262 242 242 270 280 280 272 267 258 244 251 253 238 248 260 269 276 277 278 289 299 304 307 309 315 322 321 319 317 317 320 323 323 325 325 324 325 326 325 324 323 321 320 318 316 315 309 299 283 265 249 240 234 227 220 216 212 209 208 209 209 209 207 205 207 209 208 208 209 208 209 211 214 219 223 229 233 231
267 272 48 36 304 294 279 311 304 290 261 253 278 293 285 269 266 249 233 212 203 242 270 272 274 286 306 322 318 313 313 317 322 326 322 315 313 316 320 321 319 321 322 323 326 325 324 324 322 321 320 318 317 315 313 308 295 272 255 245 238 230 221 215 211 209 209 209 208 207 207 204 204 206 205 206 208 208 209 210 214 217 219 223 227 225
304 257 312 10 302 284 297 325 312 305 303 271 248 296 302 294 283 270 252 207 197 218 270 280 285 308 320 322 316 314 317 318 321 325 317 309 308 309 314 317 318 318 319 321 323 321 321 322 321 320 319 318 317 314 314 313 300 280 266 253 241 231 222 215 211 209 209 209 206 206 207 205 204 205 204 204 207 210 211 210 212 213 213 218 221 221
179 228 276 70 272 287 311 325 310 301 334 23 217 237 272 277 282 286 287 276 226 204 231 270 289 298 303 307 307 309 309 309 315 316 304 296 296 302 313 317 316 317 317 317 318 318 318 319 318 319 318 317 317 315 314 313 304 289 275 258 242 232 224 217 212 208 208 208 206 205 206 205 205 205 204 205 207 210 211 209 209 209 209 213 215 218
169 193 226 175 242 283 313 340 325 318 359 344 310 249 199 230 241 264 279 283 244 204 229 263 280 285 292 298 299 300 301 304 309 304 292 286 282 294 314 316 315 320 319 315 317 317 317 319 319 320 320 319 318 317 314 313 309 296 276 256 241 232 224 217 212 208 207 207 207 205 203 202 204 204 204 207 210 211 210 206 205 206 206 209 211 216
174 164 191 211 233 281 315 4 315 301 314 315 301 246 185 239 259 278 289 292 177 168 223 274 288 298 309 312 309 310 307 305 301 286 273 273 279 301 317 317 317 319 315 313 317 316 315 317 317 317 318 318 317 316 315 317 313 297 276 257 241 231 222 214 211 208 206 206 206 205 203 200 201 202 205 209 210 209 206 202 202 203 203 206 209 213
182 161 186 232 212 269 304 290 272 290 302 296 230 202 243 297 301 301 303 299 166 145 265 307 312 321 324 320 320 319 308 301 296 270 234 245 297 317 319 315 313 313 310 312 315 312 310 311 312 315 317 317 317 317 319 321 315 296 276 258 242 229 218 213 213 210 208 209 207 206 204 201 202 205 208 209 209 208 206 203 201 201 201 203 205 210
190 209 218 244 239 150 285 291 293 302 305 287 208 204 193 237 246 235 283 286 200 146 302 318 322 323 320 318 322 323 315 308 311 310 298 308 323 325 321 315 311 308 305 308 311 313 314 314 314 316 318 317 317 319 322 322 313 293 271 256 244 231 219 217 217 213 213 214 212 210 208 206 208 210 209 209 210 209 208 205 202 203 205 202 201 206
156 258 176 222 267 223 242 282 280 272 284 282 263 228 175 196 215 198 266 276 202 160 251 324 319 312 312 314 318 323 325 316 312 317 324 325 324 320 314 310 309 310 309 309 309 311 313 314 315 318 319 319 318 321 325 321 309 287 265 254 245 234 228 226 222 218 219 219 216 214 213 211 212 213 211 210 211 210 209 207 203 205 207 203 198 201
138 141 196 214 243 209 203 263 261 240 258 271 274 275 115 130 164 216 272 285 334 346 345 359 311 304 307 310 309 312 311 306 305 309 315 316 314 310 307 305 306 310 310 311 313 313 310 309 313 315 317 320 322 324 326 321 306 280 267 263 249 235 235 236 234 229 226 222 218 216 215 214 214 215 213 212 212 211 211 209 205 205 205 203 199 198
144 158 216 236 246 198 203 249 277 265 256 258 265 276 104 132 187 257 287 324 354 333 330 342 309 304 305 304 305 302 294 294 294 297 303 306 307 309 310 310 310 308 306 307 314 319 317 313 314 313 311 318 325 326 325 321 305 279 274 270 252 245 247 247 245 241 232 224 221 219 217 217 218 218 215 213 212 211 210 209 207 205 203 203 201 198
179 161 194 250 248 193 208 244 282 283 259 235 235 98 109 226 283 296 315 343 345 319 318 327 320 313 310 304 299 294 294 296 295 295 299 302 305 308 310 313 315 315 314 314 317 322 322 318 317 316 314 320 325 326 324 320 301 283 281 271 261 265 264 257 251 246 237 230 226 223 220 219 220 218 215 212 209 207 207 207 206 206 204 203 203 201
185 223 251 221 182 183 259 253 281 290 260 145 57 45 145 236 297 320 324 327 324 311 314 317 315 316 315 310 306 301 301 302 300 301 304 305 306 308 308 311 312 312 315 317 317 320 322 318 315 315 314 317 321 322 323 317 300 289 284 275 278 283 277 265 258 250 241 236 230 227 225 222 220 217 211 208 206 204 204 203 203 204 203 202 200 199
185 203 267 258 181 192 249 221 246 279 277 126 179 298 270 267 304 327 307 303 311 311 306 303 306 312 310 308 308 307 306 306 305 306 308 307 308 308 306 307 306 305 310 313 312 316 320 316 312 314 314 314 317 318 319 314 301 293 288 288 294 295 285 275 267 252 243 239 233 230 228 223 219 215 209 205 203 201 201 201 200 200 200 199 196 194
199 187 264 279 217 209 251 250 259 284 300 273 247 277 284 288 298 297 279 293 305 302 293 295 304 309 308 305 305 303 303 305 307 308 306 303 303 301 298 299 299 299 305 308 308 313 316 312 309 310 311 314 315 315 315 313 302 292 295 301 304 300 290 282 270 252 245 241 235 231 228 221 216 212 207 204 202 200 199 198 197 196 196 195 192 190
234 169 228 271 236 251 270 262 258 273 286 290 288 279 272 280 291 295 284 293 298 298 301 303 304 309 311 308 305 303 304 305 306 307 306 303 303 301 299 299 301 302 307 308 309 313 314 310 308 307 307 311 313 312 314 315 305 294 300 308 309 302 293 284 268 254 248 243 238 233 226 218 213 209 206 204 203 202 201 199 195 193 194 193 190 191
230 161 219 248 250 272 270 262 266 286 288 292 296 288 275 278 295 307 302 303 306 307 304 301 301 306 309 309 307 306 307 308 308 308 308 309 309 308 306 305 305 305 307 306 307 311 311 307 306 308 307 308 309 309 311 313 309 304 308 313 312 305 294 280 265 255 249 244 240 234 226 218 211 206 204 204 202 202 202 200 197 194 192 191 188 187
142 120 248 246 240 244 259 273 296 305 297 294 291 286 298 328 326 313 309 309 309 305 299 301 307 313 314 314 313 312 310 310 309 310 310 309 308 308 306 306 305 305 306 305 306 309 310 305 304 306 304 303 305 305 308 311 311 310 313 315 314 308 293 275 263 254 250 248 242 234 227 220 212 207 204 203 202 200 198 198 198 197 197 198 195 191
97 235 259 264 267 263 269 285 301 296 293 305 343 5 350 344 329 318 319 323 323 325 327 329 329 328 321 313 311 312 313 311 308 307 307 306 305 304 303 304 304 304 304 304 304 306 307 304 303 303 302 301 301 302 305 309 311 312 315 316 314 308 291 273 264 255 252 250 244 236 229 221 215 211 207 204 203 203 201 202 203 203 205 207 207 205
160 244 250 267 283 274 282 310 333 325 314 326 349 350 341 340 337 329 332 339 339 337 337 334 330 328 323 318 316 315 312 310 309 308 306 305 303 302 301 302 303 301 301 302 303 303 303 303 302 302 300 299 299 300 304 308 310 312 315 315 314 308 292 275 264 256 252 248 242 236 228 220 216 213 209 205 204 203 205 208 210 212 212 213 215 215
210 262 286 295 289 297 316 334 347 344 325 327 335 335 334 340 345 339 337 339 337 335 334 329 324 323 321 318 317 315 310 307 307 305 302 301 301 302 302 302 302 300 299 300 300 300 302 303 303 302 300 298 298 300 303 306 308 310 313 314 313 308 295 278 261 253 250 246 242 235 226 219 214 210 208 207 204 201 202 205 210 216 219 218 218 217